Showing default

KOREASAT 7, 42691

Orbit data source: Space-Track

KOREASAT 7, 42691 is a payload satellite owned by KT Sat (KR) in GEO that was launched on Thu, 04 May 2017 UTC via an ARIANE 5ECA launch vehicle from the French Guiana (FRGUI). Payloads include a variety of satellites, spacecraft, and rockets equipped with specific instruments for various scientific and technological missions. These include communications satellites like Starlink; space stations such as the ISS; scientific satellites like the Hubble; Earth observation satellites from companies like Planet Labs, Umbra, and HawkEye 360; GPS; miniature CubeSats for education and research; and military/defense satellites.

Not visible in the next 10 days
KOREASAT 7 details
Identifier
42691, 2017-023A
Orbit
GEO
Last TLE update6 hours ago
Origin
Flag of KRKT Sat (KR / SKOR)
ManufacturerThales Alenia
MissionOperational Commercial Communications
Bus & MotorSPACEBUS 4000B2, S400
Mass~3,500 kg wet, ~1,500 kg dry
Launch date (UTC)
2017-05-04 (8 years ago)
Launch vehicle
ARIANE 5ECA
Launch site
French Guiana (FRGUI)
Object type
Payload
Rocket body
Debris
Shape & HBRBox + 2 Pan, 30 m
Radar Cross Section21.380 m², Large (>1 m²)

Expand to show TLE details & history

TLE from 6 hours ago
0 KOREASAT 7
1 42691U 17023A   25045.40407156 -.00000365  00000-0  00000+0 0  9992
2 42691   0.0257 349.2207 0001365 347.4853  69.2923  1.00273301 28552
Epoch: 2025-02-14T09:41Z
Definitive object data (Epoch: 2025-02-14T09:41:51.782Z)
Latitude-0.00765°
Longitude115.91608°
Altitude35,783.632 km
Speed3.075 km/s
True Right ascension03h 04m 11s
True Declination0° 00' 28"
Sunlit
Object was in daylight at TLE epoch
Visualization TLE readout
Latitude0.00594°
Longitude-160.59818°
Altitude35,790.845 km
Speed3.074 km/s
Apparent Right ascension08h 22m 05s
Apparent Declination-5° 03' 16"
Sunlit
Object is in daylight
Visualization observer readout
Local Sidereal Time17:54:01
Azimuth306.439° NW
Elevation-41.802°
Doppler factor1
Orbital elements
Apogee altitude35,792.996 km
Perigee altitude35,781.485 km
Semi-major axis42,165.377 km
Eccentricity0.0001365
Inclination0.0257°
RAAN349.2207°
Arg. of periapsis347.4853°
True anomaly69.30693°
Mean anomaly69.2923°
Eccentric anomaly69.29962°
Mean motion0.25067 °/min
BSTARUnknown
Orbital period1436.13 mins
Loading historical data...
42691 neighbors
Authenticating...
Loading maneuver chart data...
Loading historical data...
Loading historical data...
Loading historical data...
Loading historical data...
Loading historical data...
Loading historical data...
Loading historical data...
Other satellites on launch #23 in the year 2017 (2017-05-04 UTC)

KOREASAT 7 Visibility forecast

Observer location: undefined°, undefined

KOREASAT 7 is not visible in the next 10 days
Span
Click to sort rows by Start time (UTC) header in descending order
Start Az.
Max El. time (UTC)
Max El. Az.
Max El.
End time (UTC)
End Az.
|